Weather History for Montevideo, MN

Change the Weather History Date:

Thursday, August 22, 2013

  Actual Average Record
Temperature  
Mean Temperature 70 °F -  
Max Temperature 80 °F 80 °F 99 °F (1976)
Min Temperature 60 °F 57 °F 43 °F (1974)
Cooling Degree Days 5    
Growing Degree Days 20 (Base 50)    
Moisture  
Dew Point 56 °F    
Average Humidity 61    
Maximum Humidity 88    
Minimum Humidity 34    
Precipitation  
Precipitation 0.00 in - - ()
Sea Level Pressure  
Sea Level Pressure 30.12 in    
Wind  
Wind Speed 5 mph (East)    
Max Wind Speed 13 mph    
Max Gust Speed -    
Visibility 10 miles    
Events      
Averages and records for this station are not official NWS values.
T = Trace of Precipitation, MM = Missing Value Source: NWS Daily Summary

Daily Weather History Graph

Daily Weather History Graph

Search for Another Location

Airport:

Trip Planner

Search our weather history database for the weather conditions in past years. The results will help you decide how hot, cold, wet, or windy it might be!

Date:

Astronomy

Aug. 22, 2013 Rise Set
Actual Time 6:33 AM CDT 8:17 PM CDT
Civil Twilight 6:02 AM CDT 8:48 PM CDT
Nautical Twilight 5:24 AM CDT 9:25 PM CDT
Astronomical Twilight 4:42 AM CDT 10:06 PM CDT
Moon 8:52 PM CDT (8/22) 8:30 AM CDT (8/22)
Length of Visible Light 14h 46m
Length of Day
13h 43m
Waning Gibbous, 96% of the Moon is Illuminated
Aug 22
Waning Gibbous
Aug 28
Last Quarter
Sep 5
New
Sep 12
First Quarter
Sep 19
Full

Hourly Weather History & Observations

Time (CDT) Temp. Heat Index Dew Point Humidity Pressure Visibility Wind Dir Wind Speed Gust Speed Precip Events Conditions
12:13 AM 69.8 °F - 60.8 °F 73% 30.04 in 10.0 mi East 3.5 mph - N/A   Clear
12:34 AM 66.2 °F - 60.8 °F 83% 30.04 in 10.0 mi ENE 5.8 mph - N/A   Clear
12:54 AM 66.2 °F - 60.8 °F 83% 30.05 in 10.0 mi Calm Calm - N/A   Clear
1:13 AM 66.2 °F - 60.8 °F 83% 30.06 in 10.0 mi East 3.5 mph - N/A   Scattered Clouds
1:34 AM 66.2 °F - 60.8 °F 83% 30.07 in 10.0 mi ENE 4.6 mph - N/A   Scattered Clouds
1:53 AM 64.4 °F - 59.0 °F 83% 30.06 in 10.0 mi East 4.6 mph - N/A   Scattered Clouds
2:14 AM 64.4 °F - 59.0 °F 83% 30.06 in 10.0 mi East 5.8 mph - N/A   Scattered Clouds
2:34 AM 64.4 °F - 59.0 °F 83% 30.07 in 10.0 mi ENE 4.6 mph - N/A   Scattered Clouds
2:53 AM 64.4 °F - 57.2 °F 77% 30.07 in 10.0 mi ENE 6.9 mph - N/A   Mostly Cloudy
3:14 AM 64.4 °F - 57.2 °F 77% 30.07 in 10.0 mi East 6.9 mph - N/A   Mostly Cloudy
3:34 AM 64.4 °F - 57.2 °F 77% 30.08 in 10.0 mi ENE 6.9 mph - N/A   Mostly Cloudy
3:54 AM 64.4 °F - 57.2 °F 77% 30.09 in 10.0 mi ENE 6.9 mph - N/A   Scattered Clouds
4:14 AM 62.6 °F - 57.2 °F 82% 30.09 in 10.0 mi East 8.1 mph - N/A   Scattered Clouds
4:34 AM 62.6 °F - 55.4 °F 77% 30.09 in 10.0 mi East 8.1 mph - N/A   Clear
4:54 AM 64.4 °F - 55.4 °F 73% 30.08 in 10.0 mi East 12.7 mph - N/A   Clear
5:14 AM 64.4 °F - 55.4 °F 73% 30.08 in 10.0 mi ENE 9.2 mph - N/A   Clear
5:34 AM 62.6 °F - 55.4 °F 77% 30.09 in 10.0 mi East 6.9 mph - N/A   Clear
5:54 AM 62.6 °F - 55.4 °F 77% 30.10 in 10.0 mi ENE 5.8 mph - N/A   Clear
6:14 AM 60.8 °F - 55.4 °F 82% 30.11 in 10.0 mi ENE 6.9 mph - N/A   Clear
6:34 AM 60.8 °F - 55.4 °F 82% 30.11 in 10.0 mi ENE 5.8 mph - N/A   Clear
6:54 AM 60.8 °F - 55.4 °F 82% 30.12 in 10.0 mi ENE 4.6 mph - N/A   Clear
7:14 AM 60.8 °F - 55.4 °F 82% 30.13 in 10.0 mi ENE 4.6 mph - N/A   Clear
7:34 AM 62.6 °F - 55.4 °F 77% 30.14 in 10.0 mi ENE 3.5 mph - N/A   Mostly Cloudy
7:54 AM 64.4 °F - 55.4 °F 73% 30.14 in 10.0 mi ESE 3.5 mph - N/A   Scattered Clouds
8:14 AM 66.2 °F - 55.4 °F 68% 30.15 in 10.0 mi East 4.6 mph - N/A   Scattered Clouds
8:34 AM 64.4 °F - 55.4 °F 73% 30.16 in 10.0 mi SE 5.8 mph - N/A   Scattered Clouds
8:54 AM 66.2 °F - 55.4 °F 68% 30.17 in 10.0 mi Calm Calm - N/A   Mostly Cloudy
9:14 AM 68.0 °F - 55.4 °F 64% 30.17 in 10.0 mi South 5.8 mph - N/A   Overcast
9:34 AM 68.0 °F - 55.4 °F 64% 30.17 in 10.0 mi SE 3.5 mph - N/A   Overcast
9:54 AM 69.8 °F - 53.6 °F 56% 30.16 in 10.0 mi ESE 4.6 mph - N/A   Mostly Cloudy
10:14 AM 71.6 °F - 53.6 °F 53% 30.16 in 10.0 mi SE 8.1 mph - N/A   Scattered Clouds
10:34 AM 73.4 °F - 53.6 °F 50% 30.16 in 10.0 mi ESE 6.9 mph - N/A   Clear
10:54 AM 73.4 °F - 51.8 °F 47% 30.17 in 10.0 mi ESE 9.2 mph - N/A   Clear
11:14 AM 73.4 °F - 55.4 °F 53% 30.16 in 10.0 mi ENE 5.8 mph - N/A   Clear
11:34 AM 75.2 °F - 53.6 °F 47% 30.16 in 10.0 mi East 8.1 mph - N/A   Clear
11:54 AM 75.2 °F - 53.6 °F 47% 30.16 in 10.0 mi East 9.2 mph - N/A   Clear
12:14 PM 75.2 °F - 53.6 °F 47% 30.16 in 10.0 mi East 9.2 mph - N/A   Clear
12:34 PM 77.0 °F - 55.4 °F 47% 30.15 in 10.0 mi ENE 6.9 mph - N/A   Clear
12:54 PM 78.8 °F - 53.6 °F 42% 30.15 in 10.0 mi East 9.2 mph - N/A   Clear
1:14 PM 78.8 °F - 53.6 °F 42% 30.15 in 10.0 mi East 8.1 mph - N/A   Clear
1:34 PM 78.8 °F - 55.4 °F 44% 30.15 in 10.0 mi ENE 8.1 mph - N/A   Clear
1:54 PM 78.8 °F - 53.6 °F 42% 30.15 in 10.0 mi East 11.5 mph - N/A   Clear
2:13 PM 78.8 °F - 55.4 °F 44% 30.15 in 10.0 mi East 8.1 mph - N/A   Clear
2:34 PM 78.8 °F - 55.4 °F 44% 30.14 in 10.0 mi ENE 9.2 mph - N/A   Clear
2:53 PM 77.0 °F - 55.4 °F 47% 30.14 in 10.0 mi ENE 6.9 mph - N/A   Clear
3:14 PM 78.8 °F - 55.4 °F 44% 30.14 in 10.0 mi ENE 6.9 mph - N/A   Clear
3:34 PM 78.8 °F - 53.6 °F 42% 30.14 in 10.0 mi East 6.9 mph - N/A   Clear
3:53 PM 80.6 °F - 51.8 °F 37% 30.14 in 10.0 mi East 5.8 mph - N/A   Clear
4:14 PM 80.6 °F - 51.8 °F 37% 30.14 in 10.0 mi SE 4.6 mph - N/A   Clear
4:34 PM 80.6 °F - 51.8 °F 37% 30.13 in 10.0 mi ENE 3.5 mph - N/A   Clear
4:53 PM 80.6 °F - 51.8 °F 37% 30.13 in 10.0 mi Calm Calm - N/A   Clear
5:14 PM 80.6 °F - 51.8 °F 37% 30.13 in 10.0 mi SE 5.8 mph - N/A   Clear
5:34 PM 80.6 °F - 50.0 °F 34% 30.12 in 10.0 mi East 3.5 mph - N/A   Clear
5:54 PM 80.6 °F - 51.8 °F 37% 30.12 in 10.0 mi Calm Calm - N/A   Clear
6:14 PM 80.6 °F - 51.8 °F 37% 30.12 in 10.0 mi SE 3.5 mph - N/A   Clear
6:34 PM 80.6 °F 80.3 °F 53.6 °F 39% 30.11 in 10.0 mi Calm Calm - N/A   Clear
6:54 PM 78.8 °F - 53.6 °F 42% 30.11 in 10.0 mi Calm Calm - N/A   Clear
7:13 PM 78.8 °F - 53.6 °F 42% 30.11 in 10.0 mi Calm Calm - N/A   Clear
7:34 PM 78.8 °F - 53.6 °F 42% 30.11 in 10.0 mi Calm Calm - N/A   Clear
7:54 PM 75.2 °F - 57.2 °F 53% 30.11 in 10.0 mi Calm Calm - N/A   Clear
8:13 PM 73.4 °F - 55.4 °F 53% 30.11 in 10.0 mi Calm Calm - N/A   Clear
8:34 PM 71.6 °F - 57.2 °F 60% 30.12 in 10.0 mi Calm Calm - N/A   Clear
8:54 PM 71.6 °F - 57.2 °F 60% 30.12 in 10.0 mi Calm Calm - N/A   Clear
9:13 PM 71.6 °F - 57.2 °F 60% 30.13 in 10.0 mi Calm Calm - N/A   Clear
9:34 PM 69.8 °F - 57.2 °F 64% 30.13 in 10.0 mi Calm Calm - N/A   Clear
9:54 PM 69.8 °F - 57.2 °F 64% 30.13 in 10.0 mi Calm Calm - N/A   Clear
10:13 PM 66.2 °F - 57.2 °F 73% 30.13 in 10.0 mi Calm Calm - N/A   Clear
10:34 PM 66.2 °F - 59.0 °F 78% 30.13 in 10.0 mi Calm Calm - N/A   Clear
10:54 PM 66.2 °F - 59.0 °F 78% 30.13 in 10.0 mi Calm Calm - N/A   Clear
11:13 PM 66.2 °F - 59.0 °F 78% 30.14 in 10.0 mi Calm Calm - N/A   Clear
11:34 PM 66.2 °F - 57.2 °F 73% 30.14 in 10.0 mi Calm Calm - N/A   Clear
11:54 PM 60.8 °F - 57.2 °F 88% 30.14 in 10.0 mi Calm Calm - N/A   Clear